This is the latest recevied weather packets stored in our database for station/object IR4UCA. If no packets are shown the sender has not sent any weather packets the latest 10 day(s).
| Time | Temp. | Humidity | Pressure | Rain* | Wind** | Luminosity | Snow |
|---|---|---|---|---|---|---|---|
| 1777558185 | 17.78° C | 33% | 1023 hPa | 0 mm | - | - | - |
| 1777557584 | 17.78° C | 35% | 1023.1 hPa | 0 mm | - | - | - |
| 1777556984 | 17.78° C | 34% | 1023.1 hPa | 0 mm | - | - | - |
| 1777556385 | 17.78° C | 35% | 1023.2 hPa | 0 mm | - | - | - |
| 1777555784 | 17.78° C | 37% | 1023.3 hPa | 0 mm | - | - | - |
| 1777555185 | 17.78° C | 38% | 1023.3 hPa | 0 mm | - | - | - |
| 1777554584 | 17.78° C | 41% | 1023.4 hPa | 0 mm | - | - | - |
| 1777553984 | 17.78° C | 41% | 1023.6 hPa | 0 mm | - | - | - |
| 1777552784 | 17.22° C | 40% | 1023.6 hPa | 0 mm | - | - | - |
| 1777551584 | 17.22° C | 46% | 1023.7 hPa | 0 mm | - | - | - |
| 1777550984 | 17.78° C | 47% | 1023.8 hPa | 0 mm | - | - | - |
| 1777550384 | 17.78° C | 48% | 1023.7 hPa | 0 mm | - | - | - |
| 1777549784 | 17.78° C | 48% | 1023.8 hPa | 0 mm | - | - | - |
| 1777549184 | 17.78° C | 48% | 1023.6 hPa | 0 mm | - | - | - |
| 1777548584 | 17.78° C | 48% | 1023.7 hPa | 0 mm | - | - | - |
| 1777547986 | 17.78° C | 48% | 1023.8 hPa | 0 mm | - | - | - |
| 1777547384 | 17.22° C | 49% | 1023.8 hPa | 0 mm | - | - | - |
| 1777546784 | 17.22° C | 49% | 1023.8 hPa | 0 mm | - | - | - |
| 1777546185 | 17.22° C | 50% | 1023.8 hPa | 0 mm | - | - | - |
| 1777545584 | 17.22° C | 49% | 1023.8 hPa | 0 mm | - | - | - |
| 1777544984 | 16.67° C | 51% | 1023.9 hPa | 0 mm | - | - | - |
| 1777544384 | 16.67° C | 51% | 1023.9 hPa | 0 mm | - | - | - |
| 1777543785 | 16.67° C | 51% | 1023.9 hPa | 0 mm | - | - | - |
| 1777543184 | 16.67° C | 51% | 1024 hPa | 0 mm | - | - | - |
| 1777541984 | 16.67° C | 59% | 1024 hPa | 0 mm | - | - | - |
* Rain latest hour (hover to see other rain measurements)
** Current wind speed in m/s (hover to see current wind gust speed)